Home   Weather   Yarmouth County   Past weeks

Flag for Canada Past Weather in Yarmouth County, Nova Scotia, Canada — Yesterday and Last 2 Weeks

64 °F


Feels Like: 64 °F
Forecast: 55 / 68 °F
Wind: 12 mph from South

Location: Yarmouth

Current Time: Oct 21, 2016 at 1:40:11 PM

Latest Report: Oct 21, 2016 at 1:00 PM

Visibility: 5 mi

Pressure: 30.00 "Hg

Humidity: 100%

Dew Point: 64 °F

Location of Yarmouth CountyLocation

Past Weather in Yarmouth County — Graph


Yarmouth County Temperature Yesterday

Maximum temperature yesterday: 63 °F (at 2:00 PM)
Minimum temperature yesterday: 41 °F (at 7:00 AM)
Average temperature yesterday: 52 °F

High & Low Weather Summary for the Past Weeks

High72 °F (Oct 7, 4:00 PM)100% (Oct 6, 9:00 PM)30.44 "Hg (Oct 6, 9:00 PM)
Low34 °F (Oct 15, 5:00 AM)47% (Oct 15, 2:00 PM)29.63 "Hg (Oct 10, 10:00 AM)
Average53 °F86%30.12 "Hg
* Reported Oct 6 12:00 PM — Oct 21 12:00 PM, Yarmouth County, Weather by CustomWeather, © 2016

Note: Actual official high and low records may vary slightly from our data, if they occured in-between our weather recording intervals... More about our weather records


Yarmouth County Weather History for the Previous 24 Hours

Scroll right to see more
Time TempWeatherWind HumidityBarometerVisibility
12:00 PM
Fri, Oct 21
63 °FFog.16 mph100%30.03 "Hg4 mi
11:00 AM61 °FFog.14 mph100%30.04 "Hg3 mi
10:00 AM59 °FFog.12 mph100%30.06 "Hg4 mi
9:00 AM57 °FFog.14 mph100%30.07 "Hg2 mi
8:00 AM55 °FLow clouds.16 mph100%30.09 "Hg8 mi
7:51 AM55 °FLow clouds.14 mph100%30.09 "Hg8 mi
7:00 AM55 °FFog.15 mph94%30.09 "Hg6 mi
6:00 AM55 °FLight rain. Overcast.13 mph94%30.11 "Hg10 mi
5:00 AM55 °FOvercast.16 mph88%30.13 "Hg15 mi
4:00 AM54 °FOvercast.12 mph94%30.16 "Hg15 mi
3:00 AM50 °FPassing clouds.12 mph94%30.19 "Hg15 mi
2:00 AM48 °FPassing clouds.8 mph94%30.22 "Hg15 mi
1:00 AM48 °FPassing clouds.9 mph94%30.23 "Hg15 mi
12:00 AM48 °FPassing clouds.9 mph94%30.24 "Hg15 mi
11:00 PM
Thu, Oct 20
48 °FPassing clouds.7 mph87%30.27 "Hg15 mi
10:00 PM48 °FPassing clouds.7 mph94%30.28 "Hg15 mi
9:00 PM50 °FPassing clouds.5 mph88%30.29 "Hg15 mi
8:00 PM52 °FPassing clouds.6 mph82%30.30 "Hg15 mi
7:00 PM54 °FPassing clouds.3 mph88%30.30 "Hg15 mi
6:00 PM57 °FPassing clouds.6 mph77%30.30 "Hg15 mi
5:00 PM59 °FPassing clouds.9 mph68%30.29 "Hg15 mi
4:00 PM61 °FPassing clouds.8 mph63%30.29 "Hg15 mi
3:00 PM61 °FPassing clouds.9 mph59%30.28 "Hg15 mi
2:00 PM63 °FPassing clouds.7 mph49%30.28 "Hg15 mi
1:00 PM61 °FPassing clouds.5 mph52%30.29 "Hg14 mi
Weather by CustomWeather, © 2016

See weather overviewHow to use our weather pages